This is the latest recevied weather packets stored in our database for station/object K2ATL. If no packets are shown the sender has not sent any weather packets the latest 10 day(s).
| Time | Temp. | Humidity | Pressure | Rain* | Wind** | Luminosity | Snow |
|---|---|---|---|---|---|---|---|
| 1787431884 | 27.78° C | 67% | 1101.4 hPa | 0 mm | - | 595 W/m² | - |
| 1787431580 | 28.33° C | 62% | 1101.6 hPa | 0 mm | - | 617 W/m² | - |
| 1787431275 | 27.78° C | 67% | 1101.7 hPa | 0 mm | - | 637 W/m² | - |
| 1787430973 | 27.78° C | 58% | 1101.6 hPa | 0 mm | - | 652 W/m² | - |
| 1787430668 | 27.78° C | 61% | 1101.6 hPa | 0 mm | - | 669 W/m² | - |
| 1787430364 | 27.78° C | 63% | 1101.7 hPa | 0 mm | - | 686 W/m² | - |
| 1787430061 | 27.78° C | 64% | 1101.5 hPa | 0 mm | - | 703 W/m² | - |
| 1787429760 | 28.89° C | 62% | 1101.5 hPa | 0 mm | - | 716 W/m² | - |
| 1787429455 | 27.78° C | 64% | 1101.4 hPa | 0 mm | - | 738 W/m² | - |
| 1787429152 | 27.78° C | 68% | 1101.6 hPa | 0 mm | - | 749 W/m² | - |
| 1787428847 | 27.78° C | 67% | 1101.6 hPa | 0 mm | - | 756 W/m² | - |
| 1787428543 | 28.33° C | 61% | 1101.7 hPa | 0 mm | - | 773 W/m² | - |
| 1787428237 | 27.22° C | 63% | 1101.8 hPa | 0 mm | - | 819 W/m² | - |
| 1787427937 | 29.44° C | 67% | 1101.8 hPa | 0 mm | - | 198 W/m² | - |
| 1787427633 | 27.78° C | 67% | 1101.8 hPa | 0 mm | - | 837 W/m² | - |
| 1787427329 | 27.78° C | 70% | 1101.9 hPa | 0 mm | - | 843 W/m² | - |
| 1787427024 | 26.67° C | 73% | 1102.2 hPa | 0 mm | - | 931 W/m² | - |
| 1787426720 | 26.11° C | 73% | 1102 hPa | 0 mm | - | 218 W/m² | - |
| 1787426416 | 28.33° C | 69% | 1102.1 hPa | 0 mm | - | 196 W/m² | - |
| 1787426113 | 27.78° C | 66% | 1102.2 hPa | 0 mm | - | 907 W/m² | - |
| 1787425809 | 26.11° C | 73% | 1102.1 hPa | 0 mm | - | 977 W/m² | - |
| 1787425504 | 27.78° C | 64% | 1102.1 hPa | 0 mm | - | 188 W/m² | - |
| 1787425200 | 28.33° C | 63% | 1102.2 hPa | 0 mm | - | 957 W/m² | - |
| 1787424899 | 27.78° C | 70% | 1102.1 hPa | 0 mm | - | 918 W/m² | - |
| 1787424598 | 27.78° C | 65% | 1102.2 hPa | 0 mm | - | 908 W/m² | - |
* Rain latest hour (hover to see other rain measurements)
** Current wind speed in m/s (hover to see current wind gust speed)